When you browse on this site, cookies collect data to enhance your experience and personalize the content and advertising you see.
Visit our Privacy Policy to learn more. By continuing to use the site, you agree to this use of cookies and data.
  • en Belgique
  • Liste des pays
  • À 7 jours
  • Température de l'eau
  • Carte météo
  • Widgets météo
  • user-avatar
    Se connecter

    Météo par heure à Zhlobin

    Ce jour, 28 Mai, Jeudi

    Heure Température Précipitation Vent Pression Humidité
    00:00 +9°C° 0 mm 0 m/s 755 mmHg 88%
    01:00 +9°C° 0 mm 0 m/s 755 mmHg 89%
    02:00 +9°C° 0 mm 0 m/s 755 mmHg 89%
    03:00 +9°C° 0 mm 0 m/s 755 mmHg 89%
    04:00 +10°C° 0 mm 1 m/s 755 mmHg 90%
    05:00 +10°C° 0 mm 1 m/s 754 mmHg 90%
    06:00 +12°C° 0 mm 1 m/s 754 mmHg 85%
    07:00 +14°C° 0 mm 1 m/s 754 mmHg 80%
    08:00 +16°C° 0 mm 2 m/s 754 mmHg 75%
    09:00 +17°C° 0 mm 2 m/s 754 mmHg 70%
    10:00 +18°C° 0 mm 3 m/s 754 mmHg 65%
    11:00 +19°C° 0 mm 3 m/s 753 mmHg 60%
    12:00 +19°C° 0.3 mm 4 m/s 753 mmHg 62%
    13:00 +19°C° 0.3 mm 4 m/s 752 mmHg 63%
    14:00 +19°C° 0.3 mm 5 m/s 752 mmHg 65%
    15:00 +19°C° 0.2 mm 4 m/s 751 mmHg 68%
    16:00 +18°C° 0.2 mm 4 m/s 751 mmHg 71%
    17:00 +17°C° 0.2 mm 4 m/s 751 mmHg 74%
    18:00 +15°C° 0.1 mm 4 m/s 750 mmHg 77%
    19:00 +14°C° 0.1 mm 4 m/s 750 mmHg 81%
    20:00 +12°C° 0.1 mm 4 m/s 749 mmHg 84%
    21:00 +12°C° 2.1 mm 5 m/s 749 mmHg 87%
    22:00 +10°C° 2.1 mm 6 m/s 748 mmHg 91%
    23:00 +10°C° 2.1 mm 7 m/s 748 mmHg 94%

    Demain, 29 Mai, Vendredi

    Heure Température Précipitation Vent Pression Humidité
    00:00 +10°C° 2.5 mm 7 m/s 747 mmHg 94%
    01:00 +10°C° 2.5 mm 7 m/s 747 mmHg 94%
    02:00 +10°C° 2.5 mm 8 m/s 746 mmHg 95%
    03:00 +10°C° 0.4 mm 7 m/s 746 mmHg 95%
    04:00 +12°C° 0.4 mm 5 m/s 745 mmHg 96%
    05:00 +12°C° 0.4 mm 4 m/s 745 mmHg 97%
    06:00 +13°C° 0.1 mm 4 m/s 745 mmHg 94%
    07:00 +14°C° 0.1 mm 4 m/s 745 mmHg 92%
    08:00 +17°C° 0.1 mm 3 m/s 745 mmHg 90%
    09:00 +17°C° 0.8 mm 4 m/s 745 mmHg 87%
    10:00 +18°C° 0.8 mm 4 m/s 745 mmHg 84%
    11:00 +19°C° 0.8 mm 5 m/s 745 mmHg 81%
    12:00 +19°C° 0.6 mm 5 m/s 745 mmHg 78%
    13:00 +18°C° 0.6 mm 4 m/s 744 mmHg 76%
    14:00 +18°C° 0.6 mm 4 m/s 744 mmHg 73%
    15:00 +18°C° 0 mm 4 m/s 744 mmHg 73%
    16:00 +19°C° 0 mm 4 m/s 744 mmHg 72%
    17:00 +19°C° 0 mm 3 m/s 744 mmHg 72%
    18:00 +18°C° 0.1 mm 3 m/s 744 mmHg 78%
    19:00 +16°C° 0.1 mm 3 m/s 744 mmHg 85%
    20:00 +14°C° 0.1 mm 3 m/s 744 mmHg 91%
    21:00 +14°C° 0.1 mm 3 m/s 744 mmHg 93%
    22:00 +14°C° 0.1 mm 2 m/s 744 mmHg 94%
    23:00 +13°C° 0.1 mm 2 m/s 744 mmHg 95%

    Après-demain, 30 Mai, Samedi

    Heure Température Précipitation Vent Pression Humidité
    00:00 +13°C° 0 mm 2 m/s 744 mmHg 95%
    01:00 +13°C° 0 mm 2 m/s 744 mmHg 95%
    02:00 +13°C° 0 mm 2 m/s 744 mmHg 95%
    03:00 +13°C° 0.1 mm 2 m/s 744 mmHg 95%
    04:00 +13°C° 0.1 mm 3 m/s 744 mmHg 96%
    05:00 +13°C° 0.1 mm 3 m/s 744 mmHg 96%
    06:00 +14°C° 0.4 mm 3 m/s 744 mmHg 96%
    07:00 +15°C° 0.4 mm 4 m/s 744 mmHg 96%
    08:00 +17°C° 0.4 mm 4 m/s 743 mmHg 96%
    09:00 +16°C° 0.6 mm 5 m/s 743 mmHg 94%
    10:00 +17°C° 0.6 mm 5 m/s 743 mmHg 92%
    11:00 +19°C° 0.6 mm 6 m/s 742 mmHg 90%
    12:00 +17°C° 2.3 mm 6 m/s 742 mmHg 91%
    13:00 +17°C° 2.3 mm 7 m/s 741 mmHg 93%
    14:00 +16°C° 2.3 mm 8 m/s 741 mmHg 95%
    15:00 +17°C° 0.3 mm 8 m/s 740 mmHg 93%
    16:00 +17°C° 0.3 mm 8 m/s 740 mmHg 92%
    17:00 +18°C° 0.3 mm 9 m/s 739 mmHg 90%
    18:00 +17°C° 1 mm 9 m/s 739 mmHg 91%
    19:00 +17°C° 1 mm 9 m/s 739 mmHg 92%
    20:00 +17°C° 1 mm 10 m/s 739 mmHg 93%
    21:00 +16°C° 0.2 mm 8 m/s 740 mmHg 93%
    22:00 +14°C° 0.2 mm 7 m/s 740 mmHg 93%
    23:00 +13°C° 0.2 mm 6 m/s 741 mmHg 92%

    31 Mai, Dimanche

    Heure Température Précipitation Vent Pression Humidité
    00:00 +13°C° 0 mm 5 m/s 741 mmHg 94%
    01:00 +12°C° 0 mm 5 m/s 741 mmHg 95%
    02:00 +11°C° 0 mm 4 m/s 742 mmHg 96%
    03:00 +12°C° 0 mm 4 m/s 742 mmHg 96%
    04:00 +12°C° 0 mm 3 m/s 742 mmHg 96%
    05:00 +12°C° 0 mm 3 m/s 743 mmHg 96%
    06:00 +13°C° 0.1 mm 3 m/s 743 mmHg 93%
    07:00 +14°C° 0.1 mm 3 m/s 743 mmHg 90%
    08:00 +16°C° 0.1 mm 3 m/s 743 mmHg 88%
    09:00 +16°C° 0.6 mm 3 m/s 744 mmHg 88%
    10:00 +16°C° 0.6 mm 3 m/s 744 mmHg 88%
    11:00 +15°C° 0.6 mm 4 m/s 744 mmHg 89%
    12:00 +16°C° 0.8 mm 5 m/s 744 mmHg 89%
    13:00 +16°C° 0.8 mm 6 m/s 744 mmHg 89%
    14:00 +16°C° 0.8 mm 7 m/s 744 mmHg 90%
    15:00 +16°C° 0.4 mm 7 m/s 744 mmHg 89%
    16:00 +16°C° 0.4 mm 7 m/s 745 mmHg 89%
    17:00 +16°C° 0.4 mm 7 m/s 745 mmHg 88%
    18:00 +15°C° 0.3 mm 7 m/s 745 mmHg 89%
    19:00 +15°C° 0.3 mm 7 m/s 745 mmHg 90%
    20:00 +14°C° 0.3 mm 7 m/s 746 mmHg 91%
    21:00 +14°C° 0.1 mm 7 m/s 746 mmHg 91%
    22:00 +14°C° 0.1 mm 7 m/s 747 mmHg 91%
    23:00 +14°C° 0.1 mm 7 m/s 747 mmHg 92%

    1 Juin, Lundi

    Heure Température Précipitation Vent Pression Humidité
    00:00 +12°C° 0 mm 7 m/s 747 mmHg 92%
    01:00 +13°C° 0 mm 6 m/s 747 mmHg 92%
    02:00 +13°C° 0 mm 6 m/s 748 mmHg 92%
    03:00 +13°C° 0 mm 6 m/s 748 mmHg 92%
    04:00 +13°C° 0 mm 6 m/s 748 mmHg 92%
    05:00 +13°C° 0 mm 6 m/s 748 mmHg 92%
    06:00 +13°C° 0 mm 6 m/s 748 mmHg 90%
    07:00 +14°C° 0 mm 7 m/s 749 mmHg 88%
    08:00 +14°C° 0 mm 7 m/s 749 mmHg 86%
    09:00 +14°C° 0 mm 7 m/s 749 mmHg 84%
    10:00 +14°C° 0 mm 7 m/s 750 mmHg 83%
    11:00 +15°C° 0 mm 7 m/s 750 mmHg 81%
    12:00 +15°C° 0 mm 7 m/s 750 mmHg 78%
    13:00 +16°C° 0 mm 7 m/s 750 mmHg 75%
    14:00 +17°C° 0 mm 7 m/s 750 mmHg 72%
    15:00 +17°C° 0 mm 7 m/s 750 mmHg 73%
    16:00 +17°C° 0 mm 6 m/s 750 mmHg 73%
    17:00 +17°C° 0 mm 6 m/s 750 mmHg 73%
    18:00 +16°C° 0 mm 5 m/s 750 mmHg 77%
    19:00 +15°C° 0 mm 5 m/s 750 mmHg 81%
    20:00 +14°C° 0 mm 4 m/s 750 mmHg 84%
    21:00 +13°C° 0 mm 4 m/s 751 mmHg 83%
    22:00 +12°C° 0 mm 4 m/s 751 mmHg 83%
    23:00 +12°C° 0 mm 4 m/s 751 mmHg 82%

    2 Juin, Mardi

    Heure Température Précipitation Vent Pression Humidité
    00:00 +11°C° 0 mm 4 m/s 751 mmHg 84%
    01:00 +10°C° 0 mm 4 m/s 751 mmHg 85%
    02:00 +10°C° 0 mm 4 m/s 751 mmHg 87%
    03:00 +8°C° 0 mm 4 m/s 751 mmHg 87%
    04:00 +8°C° 0 mm 4 m/s 751 mmHg 88%
    05:00 +8°C° 0 mm 4 m/s 751 mmHg 88%
    06:00 +11°C° 0 mm 4 m/s 752 mmHg 82%
    07:00 +13°C° 0 mm 5 m/s 752 mmHg 76%
    08:00 +14°C° 0 mm 5 m/s 752 mmHg 69%
    09:00 +15°C° 0 mm 5 m/s 752 mmHg 66%
    10:00 +17°C° 0 mm 5 m/s 752 mmHg 63%
    11:00 +19°C° 0 mm 5 m/s 752 mmHg 60%
    12:00 +19°C° 0.1 mm 4 m/s 752 mmHg 60%
    13:00 +19°C° 0.1 mm 4 m/s 752 mmHg 60%
    14:00 +19°C° 0.1 mm 4 m/s 752 mmHg 59%
    15:00 +19°C° 0.1 mm 4 m/s 751 mmHg 61%
    16:00 +19°C° 0.1 mm 4 m/s 751 mmHg 63%
    17:00 +19°C° 0.1 mm 3 m/s 751 mmHg 64%
    18:00 +17°C° 0 mm 3 m/s 751 mmHg 71%
    19:00 +16°C° 0 mm 3 m/s 751 mmHg 78%
    20:00 +14°C° 0 mm 2 m/s 751 mmHg 84%
    21:00 +13°C° 0 mm 2 m/s 751 mmHg 87%
    22:00 +12°C° 0 mm 2 m/s 752 mmHg 89%
    23:00 +10°C° 0 mm 2 m/s 752 mmHg 91%
    Voir plus